• Join FlightAware (Why Join?)
  • Login
  • US Flag 
01:17AM EDT


 

Airport Tracker/Info


-or-


 

Live Flight TrackerFlight Track Log ✈ RPA3865 ✈ 04-May-2013 ✈ KDEN - KABQ

Flight Track Log - Related Links

Times and Time Zones

All times are in EDT time to prevent confusion due to time zone crossing. See the RPA3865 flight status page for this flight to view local times or setup timezone preferences in your user account.

Time Position Orientation Groundspeed Altitude Reporting Facility
EDT Latitude Longitude Course Direction KTS MPH feet Rate Location/Type
05:46PM 39.8500 -104.5500 207° Southwest 202 232 7,900  Level Denver TRACON
05:46PM 39.8333 -104.5000 113° Southeast 229 264 9,600 1,560 Climbing Denver TRACON
05:47PM 39.8244 -104.4744 114° Southeast 228 262 9,800 2,100 Climbing Denver Center
05:48PM 39.7781 -104.4128 134° Southeast 232 267 12,400 1,980 Climbing Denver Center
05:49PM 39.7142 -104.4000 171° South 233 268 13,900 1,320 Climbing Denver Center
05:50PM 39.6739 -104.4719 234° Southwest 246 283 15,200 1,320 Climbing Denver Center
05:51PM 39.3692 -104.9150 207° Southwest  Level FlightAware Approximate
05:51PM 39.6333 -104.5494 236° Southwest 257 296 16,700  Level Denver Center
05:52PM 39.5839 -104.6397 235° Southwest 294 338 17,000 120 Climbing Denver Center
05:53PM 39.5297 -104.6956 218° Southwest 325 374 17,000 780 Level Denver Center
05:54PM 39.4403 -104.7786 216° Southwest 318 366 18,900 1,500 Climbing Denver Center
05:55PM 39.3611 -104.8547 217° Southwest 290 334 20,500 1,260 Climbing Denver Center
05:56PM 39.2919 -104.9206 216° Southwest 287 330 21,600 840 Climbing Denver Center
05:57PM 39.2275 -104.9819 216° Southwest 285 328 22,500 780 Climbing Denver Center
05:58PM 39.1478 -105.0581 217° Southwest 291 335 23,500 720 Climbing Denver Center
05:59PM 39.0742 -105.1033 206° Southwest 287 330 24,000 240 Climbing Denver Center
06:00PM 38.9936 -105.1467 203° Southwest 306 352 24,000  Level Denver Center
06:01PM 38.9100 -105.1975 205° Southwest 325 374 24,000  Level Denver Center
06:03PM 38.8206 -105.2500 205° Southwest 331 381 24,000  Level Denver Center
06:04PM 38.7386 -105.2986 205° Southwest 338 389 24,000  Level Denver Center
06:05PM 38.6425 -105.3539 204° Southwest 339 390 24,000  Level Denver Center
06:06PM 38.5608 -105.4025 205° Southwest 339 390 24,000  Level Denver Center
06:07PM 38.4717 -105.4319 194° South 346 398 24,000  Level Denver Center
06:08PM 38.3669 -105.4672 195° South 347 399 24,000  Level Denver Center
06:09PM 38.2789 -105.4989 196° South 345 397 24,000  Level Denver Center
06:10PM 38.1742 -105.5344 195° South 348 400 24,000  Level Denver Center
06:11PM 38.0714 -105.5689 195° South 344 396 24,000  Level Denver Center
06:12PM 37.9675 -105.6053 195° South 345 397 24,000  Level Denver Center
06:13PM 37.8781 -105.6350 195° South 347 399 24,000  Level Denver Center
06:14PM 37.7750 -105.6708 195° South 345 397 24,000  Level Denver Center
06:15PM 37.6831 -105.7019 195° South 354 407 24,000  Level Denver Center
06:16PM 37.5794 -105.7364 195° South 348 400 24,000  Level Denver Center
06:17PM 37.4908 -105.7664 195° South 345 397 24,000  Level Denver Center
06:18PM 37.4031 -105.7964 195° South 342 394 24,000  Level Denver Center
06:19PM 37.3008 -105.8347 197° South 344 396 24,000  Level Denver Center
06:20PM 37.2175 -105.8731 200° South 344 396 24,000  Level Denver Center
06:21PM 37.1339 -105.9119 200° South 337 388 24,000  Level Denver Center
06:22PM 37.0342 -105.9558 199° South 338 389 24,000  Level Denver Center
06:23PM 36.9319 -105.9994 199° South 344 396 24,000  Level Denver Center
06:24PM 36.8467 -106.0408 201° Southwest 346 398 24,000  Level Denver Center
06:25PM 36.7489 -106.0797 198° South 341 392 24,000  Level Denver Center
06:26PM 36.6592 -106.1211 200° South 344 396 24,000  Level Denver Center
06:27PM 36.5711 -106.1597 199° South 349 402 24,000  Level Albuquerque Center
06:28PM 36.4853 -106.1994 200° South 346 398 24,000  Level Albuquerque Center
06:29PM 36.3972 -106.2369 199° South 347 399 24,000  Level Albuquerque Center
06:30PM 36.2972 -106.2808 199° South 342 394 24,000  Level Albuquerque Center
06:31PM 36.2103 -106.3189 199° South 344 396 24,000  Level Albuquerque Center
06:32PM 36.1169 -106.3597 199° South 342 394 24,000  Level Albuquerque Center
06:33PM 36.0275 -106.3983 199° South 341 392 24,000 -720 Level Albuquerque Center
06:34PM 35.9358 -106.4372 199° South 345 397 22,600 -1,680 Descending Albuquerque Center
06:35PM 35.8339 -106.4811 199° South 348 400 20,600 -1,860 Descending Albuquerque Center
06:36PM 35.7522 -106.5150 199° South 347 399 18,900 -1,920 Descending Albuquerque Center
06:37PM 35.6781 -106.5472 199° South 352 405 17,400 -2,220 Descending Albuquerque Center
06:37PM 35.6481 -106.5600 199° South 355 409 16,800 -1,920 Descending Albuquerque Center
06:38PM 35.5553 -106.6025 200° South 357 411 14,900 -1,800 Descending Albuquerque Center
06:39PM 35.4692 -106.6353 197° South 327 376 13,200 -1,200 Descending Albuquerque Center
06:40PM 35.3981 -106.6669 200° South 290 334 12,700 -1,200 Descending Albuquerque Center
06:41PM 35.3250 -106.7014 201° Southwest 273 314 11,000 -1,680 Descending Albuquerque Center
06:42PM 35.2567 -106.7372 203° Southwest 272 313 9,400 -1,440 Descending Albuquerque Center
06:43PM 35.1872 -106.7681 200° South 262 302 8,100 -1,140 Descending Albuquerque Center
06:44PM 35.1750 -106.7672 177° South 262 302 8,000 -120 Descending Albuquerque Center
06:44PM 35.1256 -106.7683 181° South 208 239 8,000 -240 Level Albuquerque Center
06:45PM 35.1125 -106.7672 176° South 236 272 7,800 -840 Descending Albuquerque Center
06:45PM 35.0664 -106.7472 160° South 198 228 7,200 -540 Descending Albuquerque Center
06:46PM 35.0561 -106.7406 152° Southeast 216 249 7,300 -840 Climbing Albuquerque Center
06:46PM 35.0439 -106.6908 107° East 185 213 6,400 -1,020 Descending Albuquerque Center
06:47PM 35.0444 -106.6797 87° East 200 230 6,300 -840 Descending Albuquerque Center
06:47PM 35.0450 -106.6361 89° East 154 177 5,600 -840 Descending Albuquerque Center
06:48PM 35.0444 -106.6244 93° East 181 208 5,500 -360 Descending Albuquerque Center
06:50PM 35.0402 -106.6092 90° East  Level Estimated